Change the Weather History Date:

Friday, August 22, 2014

  Actual Average Record
Temperature  
Mean Temperature 89 °F -  
Max Temperature 99 °F 87 °F 99 °F (2014)
Min Temperature 82 °F 73 °F 72 °F (1997)
Cooling Degree Days 24    
Growing Degree Days 39 (Base 50)    
Moisture  
Dew Point 77 °F    
Average Humidity 69    
Maximum Humidity 85    
Minimum Humidity 47    
Precipitation  
Precipitation 0.00 in - - ()
Sea Level Pressure  
Sea Level Pressure 30.05 in    
Wind  
Wind Speed 4 mph (WNW)    
Max Wind Speed 9 mph    
Max Gust Speed -    
Visibility 10 miles    
Events      
Averages and records for this station are not official NWS values.
T = Trace of Precipitation, MM = Missing Value Source: NWS Daily Summary

Daily Weather History Graph

Daily Weather History Graph

Search for Another Location

Airport or City:

Trip Planner

Search our weather history database for the weather conditions in past years. The results will help you decide how hot, cold, wet, or windy it might be!

Date:

Astronomy

Aug. 22, 2014 Rise Set
Actual Time 6:16 AM CDT 7:20 PM CDT
Civil Twilight 5:51 AM CDT 7:44 PM CDT
Nautical Twilight 5:22 AM CDT 8:14 PM CDT
Astronomical Twilight 4:52 AM CDT 8:44 PM CDT
Moon 3:44 AM CDT (8/22) 5:24 PM CDT (8/22)
Length of Visible Light 13h 53m
Length of Day
13h 03m
Waning Crescent, 7% of the Moon is Illuminated
Aug 22
Waning Crescent
Aug 25
New
Sep 2
First Quarter
Sep 8
Full
Sep 15
Last Quarter

Hourly Weather History & Observations

Time (CDT) Temp. Heat Index Dew Point Humidity Pressure Visibility Wind Dir Wind Speed Gust Speed Precip Events Conditions
12:53 AM 84.9 °F 94.1 °F 75.9 °F 74% 30.08 in 10.0 mi Calm Calm - N/A   Clear
1:53 AM 84.0 °F 92.6 °F 75.9 °F 76% 30.06 in 10.0 mi Calm Calm - N/A   Clear
2:53 AM 84.0 °F 92.6 °F 75.9 °F 76% 30.04 in 10.0 mi Calm Calm - N/A   Clear
3:53 AM 82.9 °F 90.8 °F 75.9 °F 79% 30.04 in 10.0 mi NW 3.5 mph - N/A   Clear
4:53 AM 82.0 °F 89.4 °F 75.9 °F 82% 30.06 in 10.0 mi NW 3.5 mph - N/A   Clear
5:53 AM 82.0 °F 90.2 °F 77.0 °F 85% 30.07 in 10.0 mi Variable 3.5 mph - N/A   Clear
6:53 AM 82.9 °F 91.8 °F 77.0 °F 82% 30.09 in 10.0 mi NNW 5.8 mph - N/A   Clear
7:53 AM 84.0 °F 93.7 °F 77.0 °F 79% 30.10 in 10.0 mi NNW 8.1 mph - N/A   Clear
8:53 AM 88.0 °F 97.5 °F 75.0 °F 65% 30.09 in 10.0 mi NNW 9.2 mph - N/A   Clear
9:53 AM 91.0 °F 102.9 °F 75.9 °F 61% 30.10 in 10.0 mi North 6.9 mph - N/A   Clear
10:53 AM 95.0 °F 105.2 °F 73.9 °F 50% 30.10 in 10.0 mi North 8.1 mph - N/A   Clear
11:53 AM 96.1 °F 105.6 °F 73.0 °F 47% 30.09 in 10.0 mi NNE 4.6 mph - N/A   Clear
12:53 PM 96.1 °F 107.1 °F 73.9 °F 49% 30.07 in 10.0 mi SW 8.1 mph - N/A   Clear
1:53 PM 93.9 °F 106.9 °F 75.9 °F 56% 30.05 in 10.0 mi SSW 5.8 mph - N/A   Clear
2:53 PM 95.0 °F 109.7 °F 77.0 °F 56% 30.04 in 10.0 mi Variable 6.9 mph - N/A   Scattered Clouds
3:53 PM 93.0 °F 104.6 °F 75.0 °F 56% 30.02 in 10.0 mi SW 6.9 mph - N/A   Clear
4:53 PM 93.0 °F 105.3 °F 75.9 °F 57% 30.01 in 10.0 mi SW 8.1 mph - N/A   Clear
5:53 PM 91.9 °F 105.9 °F 77.0 °F 62% 29.99 in 10.0 mi Variable 4.6 mph - N/A   Clear
6:53 PM 89.1 °F 104.4 °F 79.0 °F 72% 29.99 in 10.0 mi WSW 8.1 mph - N/A   Partly Cloudy
7:53 PM 88.0 °F 104.3 °F 80.1 °F 77% 29.99 in 10.0 mi Variable 3.5 mph - N/A   Clear
8:53 PM 87.1 °F 103.2 °F 80.1 °F 80% 30.00 in 10.0 mi SW 6.9 mph - N/A   Clear
9:53 PM 87.1 °F 101.5 °F 79.0 °F 77% 30.01 in 10.0 mi North - - N/A   Clear
10:53 PM 87.1 °F 101.5 °F 79.0 °F 77% 30.01 in 10.0 mi Variable 3.5 mph - N/A   Clear
11:53 PM 86.0 °F 99.3 °F 79.0 °F 79% 30.01 in 10.0 mi WSW 4.6 mph - N/A   Clear